Ellensburg, WA

10:58 PM PST on November 19, 2017 (GMT -0800)
Bowers

Weather History for KELN - January, 2012

Change the Weather History Date:

Monday, January 9, 2012

  Actual Average (KYKM) Record (KYKM)
Temperature  
Mean Temperature 30 °F -  
Max Temperature 39 °F 34 °F 59 °F (1983)
Min Temperature 24 °F 20 °F -15 °F (1974)
Degree Days  
Heating Degree Days 36    
Moisture  
Dew Point 27 °F    
Average Humidity 84    
Maximum Humidity 89    
Minimum Humidity 77    
Precipitation  
Precipitation 0.00 in - - ()
Sea Level Pressure  
Sea Level Pressure 30.24 in    
Wind  
Wind Speed 2 mph (NNE)    
Max Wind Speed 13 mph    
Max Gust Speed -    
Visibility 5 miles    
Events Fog , Rain    
Averages and records for this station are not official NWS values.
T = Trace of Precipitation, MM = Missing Value Source: NWS Daily Summary

Daily Weather History Graph

Daily Weather History Graph

Search for Another Location

Airport or City:

Trip Planner

Search our weather history database for the weather conditions in past years. The results will help you decide how hot, cold, wet, or windy it might be!

Date:

Astronomy

Jan. 09, 2012 Rise Set
Actual Time 7:46 AM PST 4:31 PM PST
Civil Twilight 7:11 AM PST 5:06 PM PST
Nautical Twilight 6:33 AM PST 5:44 PM PST
Astronomical Twilight 5:56 AM PST 6:21 PM PST
Moon 5:28 PM PST (1/9) 7:46 AM PST (1/9)
Length of Visible Light 9h 54m
Length of Day
8h 45m
Full, 100% of the Moon is Illuminated
Jan 9
Full
Jan 16
Last Quarter
Jan 22
New
Jan 30
First Quarter
Feb 7
Full

Hourly Weather History & Observations

Time (PST) Temp. Windchill Dew Point Humidity Pressure Visibility Wind Dir Wind Speed Gust Speed Precip Events Conditions
12:53 AM 27.0 °F 19.5 °F 21.9 °F 81% 30.34 in 9.0 mi North 6.9 mph - N/A   Clear
1:53 AM 27.0 °F 23.0 °F 23.0 °F 85% 30.33 in 10.0 mi ENE 3.5 mph - N/A   Scattered Clouds
2:53 AM 27.0 °F - 23.0 °F 85% 30.33 in 9.0 mi Calm Calm - N/A   Partly Cloudy
3:53 AM 26.1 °F 20.5 °F 21.9 °F 84% 30.32 in 9.0 mi ENE 4.6 mph - N/A   Clear
4:50 AM 28.4 °F - 23.0 °F 80% 30.28 in 8.0 mi Calm Calm - N/A   Partly Cloudy
4:53 AM 27.0 °F - 23.0 °F 85% 30.34 in 8.0 mi Calm Calm - N/A   Partly Cloudy
5:53 AM 26.1 °F - 21.9 °F 84% 30.33 in 8.0 mi Calm Calm - N/A   Clear
6:53 AM 26.1 °F - 21.0 °F 81% 30.33 in 8.0 mi Calm Calm - N/A   Scattered Clouds
7:04 AM 26.6 °F - 21.2 °F 80% 30.27 in 7.0 mi Calm Calm - N/A   Mostly Cloudy
7:16 AM 24.8 °F 20.5 °F 19.4 °F 80% 30.27 in 7.0 mi West 3.5 mph - N/A   Scattered Clouds
8:53 AM 27.0 °F - 21.9 °F 81% 30.33 in 1.8 mi Calm Calm - N/A   Haze
8:57 AM 26.6 °F - 23.0 °F 86% 30.27 in 0.8 mi Calm Calm - N/A   Mist
9:53 AM 28.9 °F - 25.0 °F 85% 30.33 in 0.2 mi Calm Calm - N/A Fog Light Freezing Fog
10:53 AM 30.9 °F - 27.0 °F 85% 30.32 in 0.2 mi Calm Calm - N/A Fog Light Freezing Fog
11:18 AM 32.0 °F 28.7 °F 28.4 °F 87% 30.24 in 1.2 mi SSE 3.5 mph - 0.01 in   Overcast
11:24 AM 32.0 °F 28.7 °F 28.4 °F 87% 30.24 in 0.8 mi ESE 3.5 mph - 0.01 in   Overcast
12:06 PM 32.0 °F - 28.4 °F 87% 30.22 in 1.5 mi Calm Calm - N/A   Overcast
12:22 PM 32.0 °F - 28.4 °F 87% 30.22 in 3.0 mi Calm Calm - N/A   Overcast
12:53 PM 33.1 °F - 28.9 °F 85% 30.27 in 4.0 mi Calm Calm - N/A   Overcast
1:53 PM 34.0 °F - 28.9 °F 82% 30.24 in 6.0 mi Calm Calm - N/A   Haze
2:53 PM 35.1 °F - 28.9 °F 78% 30.22 in 7.0 mi Calm Calm - N/A   Overcast
3:53 PM 35.1 °F - 30.0 °F 82% 30.20 in 6.0 mi Calm Calm - 0.00 in   Haze
4:53 PM 33.1 °F - 28.9 °F 85% 30.20 in 5.0 mi Calm Calm - 0.00 in   Overcast
5:53 PM 33.1 °F - 30.0 °F 89% 30.19 in 4.0 mi Calm Calm - N/A   Mostly Cloudy
6:53 PM 34.0 °F - 28.9 °F 82% 30.18 in 4.0 mi Calm Calm - N/A   Haze
7:53 PM 34.0 °F - 30.0 °F 85% 30.18 in 5.0 mi Calm Calm - N/A   Overcast
8:53 PM 34.0 °F - 30.0 °F 85% 30.16 in 4.0 mi Calm Calm - 0.00 in Rain Light Rain
9:46 PM 33.8 °F - 30.2 °F 87% 30.10 in 2.5 mi Calm Calm - 0.00 in   Overcast
9:53 PM 34.0 °F - 30.0 °F 85% 30.15 in 2.5 mi Calm Calm - 0.00 in   Overcast
10:12 PM 33.8 °F 29.6 °F 30.2 °F 87% 30.10 in 3.0 mi NE 4.6 mph - N/A   Overcast
10:53 PM 35.1 °F 28.6 °F 28.9 °F 78% 30.14 in 9.0 mi WNW 8.1 mph - N/A   Scattered Clouds
11:17 PM 32.0 °F - 28.4 °F 87% 30.09 in 3.0 mi Calm Calm - N/A   Partly Cloudy
11:53 PM 39.9 °F 32.5 °F 33.1 °F 77% 30.13 in 10.0 mi WNW 12.7 mph - N/A   Partly Cloudy